2022/12/20 00:00:00,17.5,-5.3
2022/12/20 00:10:00,17.5,-5.2
2022/12/20 00:20:00,17.6,-5.1
2022/12/20 00:30:00,17.8,-5.0
2022/12/20 00:40:00,17.7,-5.2
2022/12/20 00:50:00,17.8,-5.0
2022/12/20 01:00:00,17.9,-5.1
2022/12/20 01:10:00,18.0,-5.1
2022/12/20 01:20:00,18.0,-5.2
2022/12/20 01:30:00,17.9,-5.1
2022/12/20 01:40:00,18.4,-5.0
2022/12/20 01:50:00,18.8,-5.0
2022/12/20 02:00:00,19.0,-5.0
2022/12/20 02:10:00,19.6,-5.0
2022/12/20 02:20:00,19.9,-5.0
2022/12/20 02:30:00,19.9,-5.0
2022/12/20 02:40:00,20.5,-4.9
2022/12/20 02:50:00,21.1,-4.7
2022/12/20 03:00:00,21.7,-4.8
2022/12/20 03:10:00,22.2,-4.7
2022/12/20 03:20:00,22.2,-4.8
2022/12/20 03:30:00,22.3,-4.7
2022/12/20 03:40:00,22.2,-4.6
2022/12/20 03:50:00,22.1,-4.7
2022/12/20 04:00:00,22.1,-4.5
2022/12/20 04:10:00,22.0,-4.6
2022/12/20 04:20:00,22.3,-4.6
2022/12/20 04:30:00,22.2,-4.5
2022/12/20 04:40:00,22.4,-4.2
2022/12/20 04:50:00,22.7,-4.4
2022/12/20 05:00:00,22.8,-4.6
2022/12/20 05:10:00,23.1,-4.6
2022/12/20 05:20:00,23.0,-4.6
2022/12/20 05:30:00,23.0,-4.6
2022/12/20 05:40:00,23.2,-4.4
2022/12/20 05:50:00,23.3,-4.3
2022/12/20 06:00:00,23.2,-4.1
2022/12/20 06:10:00,23.1,-4.2
2022/12/20 06:20:00,23.1,-4.3
2022/12/20 06:30:00,23.0,-4.1
2022/12/20 06:40:00,22.9,-4.2
2022/12/20 06:50:00,22.8,-4.1
2022/12/20 07:00:00,22.7,-3.8
2022/12/20 07:10:00,22.7,-3.7
2022/12/20 07:20:00,22.8,-4.0
2022/12/20 07:30:00,22.7,-3.8
2022/12/20 07:40:00,22.8,-3.9
2022/12/20 07:50:00,22.9,-3.6
2022/12/20 08:00:00,23.0,-3.4
2022/12/20 08:10:00,23.0,-3.5
2022/12/20 08:20:00,23.0,-3.3
2022/12/20 08:30:00,23.2,-3.2
2022/12/20 08:40:00,23.2,-3.1
2022/12/20 08:50:00,23.2,-3.0
2022/12/20 09:00:00,23.2,-2.4
2022/12/20 09:10:00,23.1,-2.1
2022/12/20 09:20:00,23.0,-2.2
2022/12/20 09:30:00,22.9,-2.6
2022/12/20 09:40:00,22.9,-2.3
2022/12/20 09:50:00,22.8,-2.1
2022/12/20 10:00:00,22.8,-1.7
2022/12/20 10:10:00,22.8,-1.7
2022/12/20 10:20:00,22.7,-1.8
2022/12/20 10:30:00,22.7,-1.7
2022/12/20 10:40:00,22.7,-1.8
2022/12/20 10:50:00,22.7,-1.1
2022/12/20 11:00:00,22.7,-0.5
2022/12/20 11:10:00,22.5,-0.6
2022/12/20 11:20:00,22.4,-1.0
2022/12/20 11:30:00,22.4,-0.9
2022/12/20 11:40:00,22.3,-0.7
2022/12/20 11:50:00,22.2,-0.9
2022/12/20 12:00:00,22.2,-1.1
2022/12/20 12:10:00,22.1,-0.6
2022/12/20 12:20:00,22.0,-0.7
2022/12/20 12:30:00,22.0,-0.6
2022/12/20 12:40:00,22.0,-0.4
2022/12/20 12:50:00,21.9,-0.5
2022/12/20 13:00:00,21.9,-0.2
2022/12/20 13:10:00,21.8, 0.1
2022/12/20 13:20:00,21.7,-0.3
2022/12/20 13:30:00,21.6, 0.0
2022/12/20 13:40:00,21.6,-0.8
2022/12/20 13:50:00,21.5,-0.5
2022/12/20 14:00:00,21.4,-0.3
2022/12/20 14:10:00,21.3,-0.3
2022/12/20 14:20:00,21.3,-0.4
2022/12/20 14:30:00,21.1,-0.7
2022/12/20 14:40:00,21.2,-0.7
2022/12/20 14:50:00,21.1,-0.7
2022/12/20 15:00:00,21.1,-1.0
2022/12/20 15:10:00,21.0,-0.7
2022/12/20 15:20:00,20.9,-1.1
2022/12/20 15:30:00,20.8,-1.2
2022/12/20 15:40:00,20.9,-1.0
2022/12/20 15:50:00,20.9,-1.2
2022/12/20 16:00:00,20.8,-1.1
2022/12/20 16:10:00,20.7,-1.6
2022/12/20 16:20:00,20.6,-1.7
2022/12/20 16:30:00,20.5,-1.6
2022/12/20 16:40:00,20.5,-2.0
2022/12/20 16:50:00,20.6,-1.7
2022/12/20 17:00:00,20.6,-1.9
2022/12/20 17:10:00,20.5,-1.7
2022/12/20 17:20:00,20.5,-2.1
2022/12/20 17:30:00,20.5,-2.0
2022/12/20 17:40:00,20.4,-2.0
2022/12/20 17:50:00,20.4,-1.8
2022/12/20 18:00:00,20.3,-1.7
2022/12/20 18:10:00,20.2,-1.7
2022/12/20 18:20:00,20.2,-2.1
2022/12/20 18:30:00,20.2,-1.9
2022/12/20 18:40:00,20.1,-1.9
2022/12/20 18:50:00,20.0,-1.8
2022/12/20 19:00:00,20.0,-1.7
2022/12/20 19:10:00,20.0,-2.1
2022/12/20 19:20:00,19.9,-2.4
2022/12/20 19:30:00,19.9,-2.4
2022/12/20 19:40:00,19.9,-2.9
2022/12/20 19:50:00,19.8,-3.1
2022/12/20 20:00:00,19.8,-3.6
2022/12/20 20:10:00,19.7,-3.6
2022/12/20 20:20:00,19.8,-3.6
2022/12/20 20:30:00,19.7,-3.5
2022/12/20 20:40:00,19.6,-3.0
2022/12/20 20:50:00,19.5,-2.8
2022/12/20 21:00:00,19.5,-3.1
2022/12/20 21:10:00,19.5,-3.5
2022/12/20 21:20:00,19.4,-3.9
2022/12/20 21:30:00,19.5,-4.0
2022/12/20 21:40:00,19.4,-3.9
2022/12/20 21:50:00,19.4,-3.9
2022/12/20 22:00:00,19.4,-3.9
2022/12/20 22:10:00,19.3,-4.2
2022/12/20 22:20:00,19.3,-4.6
2022/12/20 22:30:00,19.3,-4.7
2022/12/20 22:40:00,19.2,-4.8
2022/12/20 22:50:00,19.2,-4.8
2022/12/20 23:00:00,19.2,-4.8
2022/12/20 23:10:00,19.2,-4.8
2022/12/20 23:20:00,19.1,-4.9
2022/12/20 23:30:00,19.1,-4.8
2022/12/20 23:40:00,19.1,-4.8
2022/12/20 23:50:00,19.0,-4.8
